Date,TemperatureHighF,TemperatureAvgF,TemperatureLowF,DewpointHighF,DewpointAvgF,DewpointLowF,HumidityHigh,HumidityAvg,HumidityLow,PressureMaxIn,PressureMinIn,WindSpeedMaxMPH,WindSpeedAvgMPH,GustSpeedMaxMPH,PrecipitationSumIn
2013-7-1,60.0,47.3,38.0,-99.9,-99.9,-99.9,0,0,100,0.00,40.00,3,-165,9,0.01
2013-7-2,62.0,47.1,38.0,-99.9,-99.9,-99.9,0,0,100,0.00,40.00,4,-271,9,0.00
2013-7-3,63.0,48.7,38.0,-99.9,-99.9,-99.9,0,0,100,0.00,40.00,5,-130,11,0.00
2013-7-4,63.0,50.3,40.0,-99.9,-99.9,-99.9,0,0,100,0.00,40.00,4,-144,8,0.00
2013-7-5,61.0,51.6,45.0,-99.9,-99.9,-99.9,0,0,100,0.00,40.00,5,-331,8,0.01
2013-7-6,65.0,50.2,43.0,-99.9,-99.9,-99.9,0,0,100,0.00,40.00,4,-205,11,0.00
2013-7-7,63.0,51.5,45.0,-99.9,-99.9,-99.9,0,0,100,0.00,40.00,3,-173,9,0.01
2013-7-8,65.0,50.5,41.0,-99.9,-99.9,-99.9,0,0,100,0.00,40.00,3,-362,8,0.02
2013-7-9,64.0,51.9,45.0,-99.9,-99.9,-99.9,0,0,100,0.00,40.00,3,-418,6,0.00
2013-7-10,66.0,52.6,47.0,-99.9,-99.9,-99.9,0,0,100,0.00,40.00,4,-387,8,0.00
2013-7-11,69.0,55.5,46.0,-99.9,-99.9,-99.9,0,0,100,0.00,40.00,4,-483,8,0.00
2013-7-12,65.0,51.1,46.0,-99.9,-99.9,-99.9,0,0,100,0.00,40.00,2,-275,6,0.02
2013-7-13,64.0,51.8,45.0,-99.9,-99.9,-99.9,0,0,100,0.00,40.00,2,-465,6,0.01
2013-7-14,60.0,49.3,44.0,-99.9,-99.9,-99.9,0,0,100,0.00,40.00,3,-256,6,0.01
2013-7-15,62.0,47.8,43.0,-99.9,-99.9,-99.9,0,0,100,0.00,40.00,3,-119,8,0.01
2013-7-16,63.0,49.3,37.0,-99.9,-99.9,-99.9,0,0,100,0.00,40.00,5,-353,10,0.00
2013-7-17,66.0,51.2,41.0,-99.9,-99.9,-99.9,0,0,100,0.00,40.00,4,-119,8,0.00
2013-7-18,64.0,52.6,45.0,-99.9,-99.9,-99.9,0,0,100,0.00,40.00,4,-177,9,0.00
2013-7-19,56.0,49.2,44.0,-99.9,-99.9,-99.9,0,0,100,0.00,40.00,4,-138,9,0.01
2013-7-20,69.0,53.4,45.0,-99.9,-99.9,-99.9,0,0,100,0.00,40.00,4,-383,8,0.00
2013-7-21,67.0,51.9,44.0,-99.9,-99.9,-99.9,0,0,100,0.00,40.00,5,-398,9,0.00
2013-7-22,57.0,51.9,48.0,-99.9,-99.9,-99.9,0,0,100,0.00,40.00,3,-427,10,0.00
2013-7-23,53.0,51.0,49.0,-99.9,-99.9,-99.9,0,0,100,0.00,40.00,0,-999,0,0.00
2013-7-24,59.0,50.9,44.0,-99.9,-99.9,-99.9,0,0,100,0.00,40.00,4,-364,9,0.00
2013-7-25,61.0,47.5,40.0,-99.9,-99.9,-99.9,0,0,100,0.00,40.00,5,-233,11,0.01
2013-7-26,61.0,49.0,40.0,-99.9,-99.9,-99.9,0,0,100,0.00,40.00,3,-332,7,0.01
2013-7-27,60.0,50.9,43.0,-99.9,-99.9,-99.9,0,0,100,0.00,40.00,3,-381,8,0.00
2013-7-28,50.0,45.1,42.0,-99.9,-99.9,-99.9,0,0,100,0.00,40.00,4,-124,9,0.02
2013-7-29,53.0,45.3,40.0,-99.9,-99.9,-99.9,0,0,100,0.00,40.00,3,-141,7,0.01
2013-7-30,58.0,48.5,41.0,-99.9,-99.9,-99.9,0,0,100,0.00,40.00,3,-321,10,0.00
2013-7-31,61.0,51.7,43.0,-99.9,-99.9,-99.9,0,0,100,0.00,40.00,2,-411,8,0.00